Date,TemperatureHighF,TemperatureAvgF,TemperatureLowF,DewpointHighF,DewpointAvgF,DewpointLowF,HumidityHigh,HumidityAvg,HumidityLow,PressureMaxIn,PressureMinIn,WindSpeedMaxMPH,WindSpeedAvgMPH,GustSpeedMaxMPH,PrecipitationSumIn
2013-11-1,85.6,62.1,41.0,63.8,49.9,40.6,99,70,32,30.13,29.86,9,2,20,0.00
2013-11-2,75.9,58.4,40.6,51.8,46.2,40.4,99,69,33,30.34,30.13,8,2,17,0.00
2013-11-3,71.2,53.3,33.1,57.8,45.1,32.8,99,77,45,30.27,30.02,8,2,18,0.00
2013-11-4,63.0,60.8,57.9,62.5,60.2,57.6,99,98,91,30.10,29.99,8,1,16,0.08
2013-11-5,80.1,69.7,62.6,74.8,67.5,62.3,99,93,83,30.06,29.93,8,2,14,0.01
2013-11-6,71.1,56.8,40.6,68.3,54.3,38.2,99,92,74,30.38,30.00,9,2,17,0.26
2013-11-7,67.8,51.0,37.8,49.4,43.8,36.5,96,79,47,30.51,30.38,8,1,17,0.00
2013-11-8,66.2,53.8,43.9,52.2,47.4,42.8,99,81,49,30.43,30.19,7,1,14,0.00
2013-11-9,69.3,60.3,53.8,64.2,57.2,50.1,94,89,84,30.22,30.13,8,1,14,0.00
2013-11-10,72.9,59.5,50.0,65.3,56.1,48.0,95,89,76,30.35,30.21,5,0,9,0.00
2013-11-11,82.2,58.8,41.9,67.1,53.6,41.3,98,85,56,30.32,30.19,5,0,8,0.00
2013-11-12,59.4,48.5,35.6,54.4,43.7,28.8,99,84,63,30.67,30.28,12,3,24,0.00
2013-11-13,59.7,39.3,25.3,38.6,30.6,24.5,99,74,40,30.68,30.41,6,1,12,0.00
2013-11-14,64.6,45.9,23.0,53.0,38.4,22.8,99,79,41,30.41,30.07,8,2,17,0.00
2013-11-15,81.9,63.2,43.5,68.9,58.3,42.5,98,85,61,30.08,29.88,8,2,14,0.00
2013-11-16,79.9,70.7,61.3,73.4,67.0,59.6,95,88,80,29.94,29.77,11,4,21,0.00
2013-11-17,91.9,73.9,51.4,79.2,66.1,50.3,97,79,43,30.00,29.81,7,2,14,0.00
2013-11-18,75.9,62.5,49.3,63.9,55.3,48.5,99,79,66,30.16,29.99,7,1,12,0.00
2013-11-19,73.4,58.7,43.3,55.3,50.5,43.1,99,77,49,30.20,30.03,8,1,13,0.00
2013-11-20,75.6,63.2,55.6,69.4,60.1,51.3,99,90,79,30.06,29.93,7,2,14,0.00
2013-11-21,80.1,71.2,64.6,76.2,68.9,61.9,99,92,83,30.11,29.95,9,2,17,0.66
2013-11-22,67.8,37.5,32.7,65.8,37.0,32.5,99,98,90,30.43,30.11,11,4,21,0.45
2013-11-23,39.7,36.0,33.1,39.0,35.6,32.8,99,99,96,30.51,30.41,10,4,20,0.06
2013-11-24,39.7,35.5,31.6,38.7,34.0,31.1,99,94,85,30.52,30.33,8,3,21,0.14
2013-11-25,38.1,35.2,32.0,37.0,34.2,31.3,99,96,88,30.36,30.12,7,1,14,0.32
2013-11-26,54.1,40.9,35.2,43.1,36.5,32.5,98,85,60,30.39,30.16,11,4,24,0.00
2013-11-27,53.6,38.1,26.8,33.1,29.3,25.6,98,74,39,30.51,30.37,8,2,14,0.00
2013-11-28,56.7,36.9,25.0,37.4,30.2,24.5,99,81,41,30.47,30.35,6,1,11,0.00
2013-11-29,66.2,46.4,23.5,54.6,42.9,23.1,99,89,65,30.52,30.37,6,1,11,0.00
2013-11-30,64.8,54.9,46.0,59.8,51.6,42.8,94,89,82,30.40,30.21,6,1,13,0.00